Location: Widewater Village at Stafford
(38.4893°N, 77.3783°W)
Time: 19:46:44
(UTC+00:00)

BlueWalker 3 - Pass Details

Date: 08 December 2022
Orbit: 499 x 517 km, 53.2° (Epoch: 29 January)

Event Time Altitude Azimuth Distance (km) Brightness Sun altitude
Rises 23:45:01 0° 315° (NW) 2,623 6.0 -22.1°
Reaches altitude 10° 23:47:17 10° 321° (NW) 1,731 5.0 -22.6°
Enters shadow 23:49:38 31° 341° (NNW) 905 3.2 -23.0°
